Time,TemperatureF,DewpointF,PressureIn,WindDirection,WindDirectionDegrees,WindSpeedMPH,WindSpeedGustMPH,Humidity,HourlyPrecipIn,Conditions,Clouds,dailyrainin,SoftwareType,DateUTC
2013-01-23 00:10:00,45.0,-99.9,-100.00,WNW,286,6.0,7.0,-999,-99.99,,,-99.99,,2013-01-23 08:10:00,
2013-01-23 00:23:00,46.0,-99.9,-100.00,WNW,301,5.0,6.0,-999,-99.99,,,-99.99,,2013-01-23 08:23:00,
2013-01-23 00:33:00,46.0,-99.9,-100.00,WNW,301,5.0,6.0,-999,-99.99,,,-99.99,,2013-01-23 08:33:00,
2013-01-23 00:53:00,45.0,-99.9,-100.00,WNW,286,6.0,7.0,-999,-99.99,,,-99.99,,2013-01-23 08:53:00,
2013-01-23 01:03:00,45.0,-99.9,-100.00,WNW,286,6.0,7.0,-999,-99.99,,,-99.99,,2013-01-23 09:03:00,
2013-01-23 01:53:00,47.0,-99.9,-100.00,WNW,303,5.0,5.0,-999,-99.99,,,-99.99,,2013-01-23 09:53:00,
2013-01-23 02:03:00,47.0,-99.9,-100.00,WNW,303,5.0,5.0,-999,-99.99,,,-99.99,,2013-01-23 10:03:00,
2013-01-23 02:23:00,48.0,-99.9,-100.00,NW,304,2.0,3.0,-999,-99.99,,,-99.99,,2013-01-23 10:23:00,
2013-01-23 02:33:00,48.0,-99.9,-100.00,NW,304,2.0,3.0,-999,-99.99,,,-99.99,,2013-01-23 10:33:00,
2013-01-23 05:23:00,50.0,-99.9,-100.00,NNW,329,4.0,5.0,-999,-99.99,,,-99.99,,2013-01-23 13:23:00,
2013-01-23 05:34:00,50.0,-99.9,-100.00,NNW,329,4.0,5.0,-999,-99.99,,,-99.99,,2013-01-23 13:34:00,
2013-01-23 06:10:00,47.0,-99.9,-100.00,WNW,301,2.0,4.0,-999,-99.99,,,-99.99,,2013-01-23 14:10:00,
2013-01-23 06:33:00,48.0,-99.9,-100.00,West,266,3.0,5.0,-999,-99.99,,,-99.99,,2013-01-23 14:33:00,
2013-01-23 06:43:00,48.0,-99.9,-100.00,West,266,3.0,5.0,-999,-99.99,,,-99.99,,2013-01-23 14:43:00,
2013-01-23 06:53:00,47.0,-99.9,-100.00,WNW,301,2.0,4.0,-999,-99.99,,,-99.99,,2013-01-23 14:53:00,
2013-01-23 07:03:00,47.0,-99.9,-100.00,WNW,301,2.0,4.0,-999,-99.99,,,-99.99,,2013-01-23 15:03:00,
2013-01-23 07:10:00,48.0,-99.9,-100.00,WSW,247,0.0,3.0,-999,-99.99,,,-99.99,,2013-01-23 15:10:00,
2013-01-23 07:53:00,48.0,-99.9,-100.00,WSW,247,0.0,3.0,-999,-99.99,,,-99.99,,2013-01-23 15:53:00,
2013-01-23 08:03:00,48.0,-99.9,-100.00,WSW,247,0.0,3.0,-999,-99.99,,,-99.99,,2013-01-23 16:03:00,
2013-01-23 08:50:00,53.0,-99.9,-100.00,North,0,3.0,3.0,-999,-99.99,,,-99.99,,2013-01-23 16:50:00,
2013-01-23 08:53:00,52.0,-99.9,-100.00,NNE,24,4.0,4.0,-999,-99.99,,,-99.99,,2013-01-23 16:53:00,
2013-01-23 09:04:00,52.0,-99.9,-100.00,NNE,24,4.0,4.0,-999,-99.99,,,-99.99,,2013-01-23 17:04:00,
2013-01-23 09:13:00,52.0,-99.9,-100.00,NNE,24,4.0,4.0,-999,-99.99,,,-99.99,,2013-01-23 17:13:00,
2013-01-23 09:20:00,54.0,-99.9,-100.00,NE,55,1.0,4.0,-999,-99.99,,,-99.99,,2013-01-23 17:20:00,
2013-01-23 09:34:00,53.0,-99.9,-100.00,North,0,3.0,3.0,-999,-99.99,,,-99.99,,2013-01-23 17:34:00,
2013-01-23 09:43:00,53.0,-99.9,-100.00,North,0,3.0,3.0,-999,-99.99,,,-99.99,,2013-01-23 17:43:00,
2013-01-23 10:04:00,54.0,-99.9,-100.00,NE,55,1.0,4.0,-999,-99.99,,,-99.99,,2013-01-23 18:04:00,
2013-01-23 10:13:00,54.0,-99.9,-100.00,NE,55,1.0,4.0,-999,-99.99,,,-99.99,,2013-01-23 18:13:00,
2013-01-23 12:20:00,56.0,-99.9,-100.00,North,351,2.0,4.0,-999,-99.99,,,-99.99,,2013-01-23 20:20:00,
2013-01-23 13:03:00,56.0,-99.9,-100.00,North,351,2.0,4.0,-999,-99.99,,,-99.99,,2013-01-23 21:03:00,
2013-01-23 13:12:00,56.0,-99.9,-100.00,North,351,2.0,4.0,-999,-99.99,,,-99.99,,2013-01-23 21:12:00,
2013-01-23 14:50:00,62.0,-99.9,-100.00,NNE,33,4.0,4.0,-999,-99.99,,,-99.99,,2013-01-23 22:50:00,
2013-01-23 15:03:00,62.0,-99.9,-100.00,North,356,5.0,7.0,-999,-99.99,,,-99.99,,2013-01-23 23:03:00,
2013-01-23 15:13:00,62.0,-99.9,-100.00,North,356,5.0,7.0,-999,-99.99,,,-99.99,,2013-01-23 23:13:00,
2013-01-23 15:23:00,62.0,-99.9,-100.00,North,356,5.0,7.0,-999,-99.99,,,-99.99,,2013-01-23 23:23:00,
2013-01-23 15:33:00,62.0,-99.9,-100.00,NNE,33,4.0,4.0,-999,-99.99,,,-99.99,,2013-01-23 23:33:00,
2013-01-23 15:43:00,62.0,-99.9,-100.00,NNE,33,4.0,4.0,-999,-99.99,,,-99.99,,2013-01-23 23:43:00,
2013-01-23 17:03:00,60.0,-99.9,-100.00,NNE,22,5.0,7.0,-999,-99.99,,,-99.99,,2013-01-24 01:03:00,
2013-01-23 17:13:00,60.0,-99.9,-100.00,NNE,22,5.0,7.0,-999,-99.99,,,-99.99,,2013-01-24 01:13:00,
2013-01-23 17:23:00,60.0,-99.9,-100.00,NNE,22,5.0,7.0,-999,-99.99,,,-99.99,,2013-01-24 01:23:00,
2013-01-23 17:33:00,58.0,-99.9,-100.00,NE,43,1.0,2.0,-999,-99.99,,,-99.99,,2013-01-24 01:33:00,
2013-01-23 17:40:00,52.0,-99.9,-100.00,West,272,3.0,4.0,-999,-99.99,,,-99.99,,2013-01-24 01:40:00,
2013-01-23 17:43:00,58.0,-99.9,-100.00,NE,43,1.0,2.0,-999,-99.99,,,-99.99,,2013-01-24 01:43:00,
2013-01-23 17:53:00,58.0,-99.9,-100.00,NE,43,1.0,2.0,-999,-99.99,,,-99.99,,2013-01-24 01:53:00,
2013-01-23 18:23:00,52.0,-99.9,-100.00,West,272,3.0,4.0,-999,-99.99,,,-99.99,,2013-01-24 02:23:00,
2013-01-23 18:30:00,53.0,-99.9,-100.00,SW,222,3.0,3.0,-999,-99.99,,,-99.99,,2013-01-24 02:30:00,
2013-01-23 18:33:00,52.0,-99.9,-100.00,West,272,3.0,4.0,-999,-99.99,,,-99.99,,2013-01-24 02:33:00,
2013-01-23 19:22:00,53.0,-99.9,-100.00,SW,222,3.0,3.0,-999,-99.99,,,-99.99,,2013-01-24 03:22:00,
2013-01-23 19:50:00,53.0,-99.9,-100.00,NNW,327,4.0,5.0,-999,-99.99,,,-99.99,,2013-01-24 03:50:00,
2013-01-23 20:33:00,53.0,-99.9,-100.00,NNW,327,4.0,5.0,-999,-99.99,,,-99.99,,2013-01-24 04:33:00,
2013-01-23 20:43:00,53.0,-99.9,-100.00,NNW,327,4.0,5.0,-999,-99.99,,,-99.99,,2013-01-24 04:43:00,
2013-01-23 21:03:00,54.0,-99.9,-100.00,NNW,337,5.0,8.0,-999,-99.99,,,-99.99,,2013-01-24 05:03:00,
2013-01-23 21:12:00,54.0,-99.9,-100.00,NNW,337,5.0,8.0,-999,-99.99,,,-99.99,,2013-01-24 05:12:00,
2013-01-23 21:23:00,54.0,-99.9,-100.00,NNW,337,5.0,8.0,-999,-99.99,,,-99.99,,2013-01-24 05:23:00,
2013-01-23 21:33:00,55.0,-99.9,-100.00,NNE,30,2.0,5.0,-999,-99.99,,,-99.99,,2013-01-24 05:33:00,
2013-01-23 21:43:00,55.0,-99.9,-100.00,NNE,30,2.0,5.0,-999,-99.99,,,-99.99,,2013-01-24 05:43:00,
2013-01-23 21:53:00,55.0,-99.9,-100.00,NNE,30,2.0,5.0,-999,-99.99,,,-99.99,,2013-01-24 05:53:00,
2013-01-23 22:30:00,54.0,-99.9,-100.00,WNW,293,4.0,4.0,-999,-99.99,,,-99.99,,2013-01-24 06:30:00,
2013-01-23 23:03:00,54.0,-99.9,-100.00,WNW,293,4.0,4.0,-999,-99.99,,,-99.99,,2013-01-24 07:03:00,
2013-01-23 23:13:00,54.0,-99.9,-100.00,WNW,293,4.0,4.0,-999,-99.99,,,-99.99,,2013-01-24 07:13:00,
2013-01-23 23:23:00,54.0,-99.9,-100.00,WNW,293,4.0,4.0,-999,-99.99,,,-99.99,,2013-01-24 07:23:00,